SCP
0 0 0 0 0 0 0 0 0 0 0 0 0 0 0 0 0 0 0 0 0 0 0 0 0 0 0 0 0 0 0 0 0 0 0 0 0 0
0 0 0 0 0 0 0 0 0 0 0 0 0 0 0 0 0 0 0 0 0 0 0 0 0 0 0 0 0 0 0 0 0 0 0 0 0 0
0 0 0 0 0 0 0 0 0 0 0 0 0 0 0 0 0 0 0 0 0 0 0 0 0 0 0 0 0 0 0 0 0 0 0 0 0 0
0 0 0 0 0 0 0 0 0 0 0 0 0 0 0 0 0 0 0 0 0 0 0 0 0 0 0 0 0 0 0 0 0 0 0 0 0 0
0 0 0 0 0 0 0 0 0 0 0 0 0 0 0 0 0 0 0 0 0 0 0 0 0 0 0 0 0 0 0 0 0 0 0 0 0 0
0 0 0 0 0 0 0 0 0 0 0 0 0 0 0 0 0 0 0 0 0 0 0 0 0 0 0 0 0 0 0 0 0 0 0 0 0 0
0 0 0 0 0 0 0 0 0 0 0 0 0 0 0 0 0 0 0 0 0 0 0 0 0 0 0 0 0 0 0 0 0 0 0 0 0 0
0 0 0 0 0 0 0 0 0 0 0 0 0 0 0 0 0 0 0 0 0 0 0 0 0 0 0 0 0 0 0 0 0 0 0 0 0 0
0 0 0 0 0 0 0 0 0 0 0 0 0 0 0 0 0 0 0 0 0 0 0 0 0 0 0 0 0 0 0 0 0 0 0 0 0 0
0 0 0 0 0 0 0 0 0 0 0 0 0 0 0 0 0 0 0 0 0 0 0 0 0 0 0 0 0 0 0 0 0 0 0 0 0 0
0 0 0 0 0 0 0 0 0 0 0 0 0 0 0 0 0 0 0 0 0 0 0 0 0 0 0 0 0 0 0 0 0 0 0 0 0 0
0 0 0 0 0 0 0 0 0 0 0 0 0 0 0 0 0 0 0 0 0 0 0 0 0 0 0 0 0 0 0 0 0 0 0 0 0 0
0 0 0 0 0 0 0 0 0 0 0 0 0 0 0 0 0 0 0 0 0 0 0 0 0 0 0 0 0 0 0 0 0 0 0 0 0 0
0 0 0 0 0 0 0 0 0 0 0 0 0 0 0 0 0 0 0 0 0 0 0 0 0 0 0 0 0 0 0 0 0 0 0 0 0 0
0 0 0 0 0 0 0 0 0 0 0 0 0 0 0 0 0 0 1 0 0 0 0 0 0 0 0 0 0 0 0 0 0 0 0 0 0 0
0 0 0 0 0 0 0 0 0 0 0 0 0 0 0 0 1 1 1 1 1 0 0 0 0 0 0 0 0 0 0 0 0 0 0 0 0 0
0 0 0 0 0 0 0 0 0 0 0 0 0 0 0 0 1 1 1 1 1 1 0 0 0 0 0 0 0 0 0 0 0 0 0 0 0 0
0 0 0 0 0 0 0 0 0 0 0 0 0 0 0 0 0 0 1 1 0 0 0 0 0 0 0 0 0 0 0 0 0 0 0 0 0 0
0 0 0 0 0 0 0 0 0 0 0 0 0 0 0 0 0 0 0 0 0 0 0 0 0 0 0 0 0 0 0 0 0 0 0 0 0 0
0 0 0 0 0 0 0 0 0 0 0 0 0 0 0 0 0 0 0 0 0 0 0 0 0 0 0 0 0 0 0 0 0 0 0 0 0 0
0 0 0 0 0 0 0 0 0 0 0 0 0 0 0 0 0 0 0 0 0 0 0 0 0 0 0 0 0 0 0 0 0 0 0 0 0 0
0 0 0 0 0 0 0 0 0 0 0 0 0 0 0 0 0 0 0 0 0 0 0 0 0 0 0 0 0 0 0 0 0 0 0 0 0 0
0 0 0 0 0 0 0 0 0 0 0 0 0 0 0 0 0 0 0 0 0 0 0 0 0 0 0 0 0 0 0 0 0 0 0 0 0 0
Wind_Speed
1 2 2 1 2 2 2 3 3 3 2 2 1 1 0 0 1 1 0 3 1 1 1 1 1 1 1 1 1 1 2 2 3 3 5 5 6 6
1 1 2 2 1 1 2 2 3 4 3 1 1 0 0 1 1 1 0 3 2 1 0 0 1 1 1 1 1 1 1 1 2 2 3 4 5 5
2 2 2 2 2 2 2 2 2 3 3 2 1 1 0 2 0 1 1 2 2 3 1 1 1 1 1 1 1 1 1 1 1 1 2 3 3 4
2 2 2 2 2 2 2 2 2 2 3 2 1 1 1 2 2 3 2 1 1 4 3 2 2 2 2 1 0 1 1 1 1 1 1 2 2 2
3 3 3 2 3 2 2 2 2 2 2 3 2 1 1 1 2 3 2 2 2 4 5 4 4 3 3 2 1 1 0 0 0 0 0 1 1 2
3 3 3 3 3 3 2 2 2 2 2 3 3 2 1 1 3 2 2 2 2 1 0 2 4 6 5 3 2 1 1 1 1 1 1 1 1 2
3 3 2 1 1 2 2 1 2 2 3 3 3 2 1 1 2 3 2 2 1 1 2 2 3 3 4 5 4 2 2 1 1 1 1 2 2 2
4 4 3 4 3 3 2 2 2 3 4 4 3 2 2 3 3 3 2 3 2 0 3 3 1 2 2 2 4 3 2 2 2 2 2 2 2 3
4 4 4 3 5 4 5 5 4 3 4 5 4 4 3 3 4 4 3 4 4 2 3 3 2 2 1 4 6 4 3 2 2 2 2 2 2 3
5 5 5 4 4 4 5 5 5 4 4 5 4 4 4 4 5 5 5 5 4 3 3 4 2 2 2 2 8 6 5 4 3 3 3 3 3 3
6 6 6 5 2 3 6 6 5 5 4 4 4 4 3 4 5 5 4 5 4 2 2 4 3 2 2 2 6 8 7 6 5 4 4 3 3 4
5 6 6 6 3 5 7 7 7 6 4 5 5 7 7 6 7 6 5 5 4 3 1 3 3 2 3 2 2 4 5 7 8 6 5 4 3 4
5 4 3 7 6 7 7 7 6 6 6 6 6 6 5 5 5 5 5 5 5 4 1 2 3 3 3 2 2 2 2 2 4 5 7 7 6 4
5 4 2 6 6 7 7 5 6 7 6 5 6 5 5 5 4 4 4 5 5 5 4 4 4 4 4 4 2 2 2 2 2 2 3 6 8 7
4 2 1 4 5 7 8 8 8 7 6 6 6 5 5 4 4 4 5 5 7 6 4 5 6 5 5 5 3 2 2 2 3 2 2 3 3 3
5 4 6 7 7 5 5 7 7 5 6 6 5 5 4 4 5 4 4 4 5 4 4 5 6 6 6 5 4 3 3 2 2 2 2 2 3 4
3 4 4 4 5 5 5 5 5 5 6 6 5 5 5 5 4 4 4 5 5 4 4 3 4 4 5 5 5 4 3 3 3 2 3 4 3 3
4 5 5 5 5 5 5 5 5 5 5 5 5 5 5 5 5 4 4 5 5 5 4 3 3 3 4 4 4 5 4 3 3 3 4 4 3 3
6 6 5 5 5 5 5 5 5 4 4 5 6 6 5 5 5 5 4 5 5 5 4 4 4 4 5 5 4 4 4 3 3 3 4 4 4 3
6 6 5 5 5 5 5 5 5 4 5 6 6 6 5 5 5 5 5 5 5 5 4 4 4 4 5 5 3 3 6 5 4 4 4 4 4 3
5 5 5 5 5 5 5 5 5 5 5 5 5 5 5 5 5 6 5 5 6 5 5 4 3 4 4 4 4 4 3 6 5 4 5 5 5 5
5 5 5 4 4 4 4 4 5 5 5 5 5 5 5 5 6 6 6 5 5 5 5 4 3 4 5 6 6 5 5 4 5 7 7 7 5 5
4 4 4 4 4 4 4 5 6 5 5 5 5 5 5 5 5 5 5 5 5 5 5 4 4 4 5 6 5 5 6 6 5 5 5 7 9 8
Wind_Direction
216 214 256 257 258 266 270 271 275 274 258 195 226 165 254 114 98 255 151 93 105 81 46 21 63 63 45 344 309 293 271 254 253 249 230 223 226 231
261 295 280 270 267 254 263 271 273 280 283 266 224 122 326 249 123 291 122 132 143 148 50 334 121 83 61 48 22 323 289 276 251 246 224 220 225 227
241 227 252 288 277 266 251 258 268 274 270 269 224 113 228 289 238 270 238 242 154 145 147 182 158 143 142 126 16 0 308 284 232 204 199 208 223 225
248 247 246 232 235 266 266 266 274 272 268 276 263 216 241 258 259 263 249 251 240 138 154 175 176 175 177 173 209 310 335 329 249 215 199 197 216 224
241 245 248 244 237 235 252 263 264 252 262 264 265 275 251 256 247 246 251 268 259 159 172 177 176 182 188 188 201 232 261 315 343 302 237 174 188 213
232 237 239 239 239 238 233 249 276 276 252 259 266 247 240 253 259 255 241 232 265 234 154 190 177 185 182 174 177 178 186 198 179 135 130 125 127 131
227 226 223 224 335 287 283 265 255 264 259 255 259 257 254 274 272 274 273 260 228 306 281 236 194 200 182 173 172 178 200 207 197 182 164 150 144 139
230 233 218 198 198 202 267 294 300 272 284 285 277 289 289 275 289 286 292 289 277 299 282 270 254 238 212 157 128 153 191 203 202 194 181 166 156 159
233 235 243 209 199 214 202 207 222 247 272 280 287 292 288 290 286 276 282 287 295 314 282 272 251 266 244 115 127 150 168 183 193 197 197 187 174 173
235 233 241 244 234 234 231 223 224 218 228 245 268 276 286 297 276 270 276 263 251 243 267 276 264 259 269 138 141 153 163 173 186 198 202 205 199 187
234 234 236 238 212 227 239 238 238 233 204 213 248 257 277 278 284 274 271 270 265 235 227 271 271 261 245 203 153 167 175 176 177 184 192 198 207 211
229 228 222 230 201 209 238 242 242 245 247 224 225 229 233 230 233 256 269 271 277 266 180 266 270 261 248 214 183 177 185 179 180 179 179 181 188 225
238 233 210 183 204 215 239 249 254 258 246 243 238 237 234 233 231 235 258 272 276 275 267 249 270 261 264 256 227 215 219 199 190 183 180 179 189 229
257 252 203 170 202 220 229 240 247 253 247 245 248 248 244 241 235 238 243 258 268 276 286 276 273 271 265 260 252 223 224 228 225 212 195 175 194 210
266 315 239 197 215 222 221 224 229 239 248 250 251 254 255 254 251 236 230 237 241 243 242 249 262 265 265 266 267 254 245 233 233 230 215 201 205 207
237 216 204 213 231 241 218 218 231 242 253 256 259 262 260 246 238 238 241 240 244 231 215 231 246 259 261 263 267 264 254 243 234 235 238 230 218 216
270 246 237 223 225 226 229 229 233 232 236 247 254 253 252 250 246 239 244 244 245 242 224 219 231 243 256 265 256 254 257 242 231 220 236 235 226 227
250 248 247 247 244 240 238 234 234 238 236 239 244 247 249 251 251 246 242 246 250 249 244 231 228 238 241 228 251 259 254 257 241 221 243 245 240 228
232 248 250 251 253 253 252 251 247 243 243 244 244 243 243 245 246 243 241 245 249 252 247 234 232 240 247 243 206 224 256 256 250 238 239 247 252 242
242 250 250 249 250 254 257 260 258 249 240 244 245 244 242 242 243 244 239 245 254 252 245 238 236 244 259 273 273 231 220 248 254 252 249 252 252 237
248 252 256 255 255 256 258 260 259 257 251 250 250 248 243 241 243 245 243 229 245 248 245 242 237 230 254 258 253 245 219 208 238 261 263 258 253 245
256 255 257 259 262 261 257 257 258 256 253 250 251 248 246 245 245 247 247 239 235 244 251 249 220 226 239 244 249 248 248 226 215 222 240 253 267 268
260 263 264 261 258 257 257 254 255 255 252 252 249 247 248 245 251 251 244 243 243 241 244 243 236 236 239 241 249 254 253 244 239 232 236 221 223 232